CNH120 HBBA-FBFT

Flight info

Callsign CNH120
Flight time N/A
Altitude 38000
Route BJA UB527 KMI UA409 VND/N0458F400 UA409 GESEN UT969 APREV DCT FNV
Aircraft IL76/H-SDFGHIM1RTUWXY/LB1

Departure

Time 2026-04-26 07:23
Airport Bujumbura Melchior Ndadaye International Airport (HBBA)

Arrival

Time N/A
Airport FBFT
Time Latitude Longitude Altitude Speed Heading
2026-04-26 07:16 -3.32130 29.31955 2606 ft 0 kts 309°
2026-04-26 07:20 -3.31993 29.31964 2605 ft 0 kts 282°
2026-04-26 07:20 -3.31630 29.31741 2602 ft 0 kts 270°
2026-04-26 07:20 -3.30938 29.31627 2606 ft 1 kts 343°
2026-04-26 07:20 -3.30906 29.31612 2606 ft 8 kts 330°
2026-04-26 07:21 -3.30841 29.31580 2607 ft 9 kts 13°
2026-04-26 07:21 -3.30825 29.31615 2608 ft 4 kts 128°
2026-04-26 07:21 -3.30862 29.31620 2607 ft 8 kts 188°
2026-04-26 07:21 -3.30883 29.31619 2607 ft 0 kts 174°
2026-04-26 07:22 -3.31037 29.31640 2606 ft 48 kts 171°
2026-04-26 07:22 -3.31547 29.31720 2602 ft 96 kts 171°
2026-04-26 07:22 -3.32345 29.31846 2604 ft 133 kts 171°
2026-04-26 07:22 -3.33341 29.32002 2694 ft 147 kts 170°
2026-04-26 07:23 -3.34359 29.32198 2809 ft 154 kts 168°
2026-04-26 07:23 -3.35462 29.32375 2963 ft 161 kts 176°
2026-04-26 07:23 -3.36582 29.32400 3162 ft 165 kts 179°
2026-04-26 07:23 -3.37738 29.32419 3346 ft 164 kts 179°
2026-04-26 07:24 -3.38898 29.32454 3446 ft 170 kts 178°
2026-04-26 07:24 -3.40183 29.32509 3457 ft 199 kts 177°
2026-04-26 07:24 -3.41659 29.32631 3626 ft 222 kts 174°
2026-04-26 07:24 -3.43292 29.32593 3736 ft 247 kts 192°
2026-04-26 07:25 -3.45092 29.32342 3885 ft 272 kts 185°
2026-04-26 07:25 -3.47072 29.32171 4007 ft 297 kts 184°
2026-04-26 07:25 -3.49243 29.32044 4120 ft 321 kts 183°
2026-04-26 07:25 -3.51527 29.31934 4206 ft 328 kts 182°
2026-04-26 07:26 -3.53803 29.31832 4303 ft 328 kts 182°
2026-04-26 07:26 -3.56113 29.31734 4478 ft 328 kts 182°
2026-04-26 07:26 -3.58402 29.31640 4650 ft 328 kts 182°
2026-04-26 07:26 -3.60697 29.31543 4820 ft 328 kts 181°
2026-04-26 07:27 -3.62993 29.31450 4989 ft 328 kts 182°
2026-04-26 07:27 -3.65299 29.31358 5160 ft 327 kts 182°
2026-04-26 07:27 -3.67591 29.31264 5329 ft 327 kts 182°
2026-04-26 07:27 -3.69884 29.31170 5500 ft 327 kts 182°
2026-04-26 07:28 -3.72175 29.31078 5695 ft 328 kts 182°
2026-04-26 07:28 -3.74492 29.30983 5891 ft 329 kts 182°
2026-04-26 07:28 -3.76798 29.30889 6084 ft 330 kts 182°
2026-04-26 07:28 -3.79081 29.30795 6274 ft 331 kts 182°
2026-04-26 07:29 -3.81438 29.30699 6467 ft 333 kts 182°
2026-04-26 07:29 -3.83756 29.30605 6655 ft 334 kts 182°
2026-04-26 07:29 -3.86094 29.30509 6845 ft 336 kts 182°
2026-04-26 07:29 -3.88467 29.30412 7037 ft 337 kts 182°
2026-04-26 07:30 -3.90830 29.30315 7230 ft 338 kts 182°
2026-04-26 07:30 -3.93204 29.30218 7424 ft 339 kts 182°
2026-04-26 07:30 -3.95557 29.30121 7616 ft 340 kts 182°
2026-04-26 07:30 -3.97953 29.30023 7806 ft 341 kts 182°
2026-04-26 07:31 -4.00359 29.29952 7997 ft 342 kts 181°
2026-04-26 07:31 -4.02738 29.29890 8233 ft 342 kts 181°
2026-04-26 07:31 -4.05151 29.29829 8470 ft 344 kts 181°
2026-04-26 07:31 -4.07545 29.29767 8704 ft 345 kts 181°
2026-04-26 07:32 -4.09978 29.29705 8940 ft 346 kts 181°
2026-04-26 07:32 -4.12408 29.29642 9176 ft 347 kts 180°
2026-04-26 07:32 -4.14839 29.29579 9412 ft 348 kts 180°
2026-04-26 07:32 -4.17256 29.29517 9646 ft 349 kts 180°
2026-04-26 07:33 -4.19708 29.29455 9883 ft 350 kts 180°
2026-04-26 07:33 -4.22173 29.29393 10121 ft 351 kts 180°
2026-04-26 07:33 -4.24636 29.29330 10357 ft 353 kts 180°
2026-04-26 07:33 -4.27109 29.29267 10594 ft 354 kts 180°
2026-04-26 07:34 -4.29611 29.29202 10833 ft 356 kts 180°
2026-04-26 07:34 -4.32101 29.29142 11070 ft 357 kts 180°
2026-04-26 07:34 -4.34601 29.29077 11306 ft 359 kts 180°
2026-04-26 07:34 -4.37108 29.29013 11543 ft 360 kts 180°
2026-04-26 07:35 -4.39639 29.28947 11783 ft 361 kts 180°
2026-04-26 07:35 -4.42182 29.28883 12019 ft 363 kts 180°
2026-04-26 07:35 -4.44705 29.28825 12258 ft 364 kts 180°
2026-04-26 07:35 -4.47282 29.28757 12496 ft 366 kts 180°
2026-04-26 07:36 -4.49825 29.28692 12726 ft 367 kts 180°
2026-04-26 07:36 -4.52423 29.28620 12963 ft 369 kts 180°
2026-04-26 07:36 -4.54996 29.28550 13200 ft 370 kts 180°
2026-04-26 07:36 -4.57581 29.28483 13437 ft 371 kts 180°
2026-04-26 07:37 -4.60187 29.28416 13673 ft 373 kts 180°
2026-04-26 07:37 -4.62819 29.28351 13905 ft 375 kts 180°
2026-04-26 07:37 -4.65442 29.28284 14136 ft 376 kts 180°
2026-04-26 07:37 -4.68073 29.28218 14370 ft 378 kts 180°
2026-04-26 07:38 -4.70707 29.28151 14603 ft 379 kts 180°
2026-04-26 07:38 -4.73391 29.28082 14838 ft 381 kts 180°
2026-04-26 07:38 -4.76041 29.28015 15069 ft 382 kts 180°
2026-04-26 07:38 -4.78709 29.27947 15301 ft 384 kts 180°
2026-04-26 07:39 -4.81409 29.27878 15535 ft 385 kts 180°
2026-04-26 07:39 -4.84111 29.27809 15767 ft 387 kts 180°
2026-04-26 07:39 -4.86844 29.27739 16001 ft 388 kts 180°
2026-04-26 07:39 -4.89546 29.27670 16232 ft 390 kts 180°
2026-04-26 07:40 -4.92281 29.27600 16463 ft 391 kts 180°
2026-04-26 07:40 -4.95053 29.27528 16698 ft 393 kts 180°
2026-04-26 07:40 -4.97788 29.27458 16928 ft 395 kts 180°
2026-04-26 07:40 -5.00564 29.27387 17161 ft 396 kts 180°
2026-04-26 07:41 -5.03339 29.27315 17392 ft 398 kts 180°
2026-04-26 07:41 -5.06157 29.27243 17626 ft 399 kts 180°
2026-04-26 07:41 -5.08931 29.27172 17855 ft 401 kts 180°
2026-04-26 07:41 -5.11758 29.27100 18085 ft 403 kts 180°
2026-04-26 07:42 -5.14575 29.27022 18312 ft 404 kts 180°
2026-04-26 07:42 -5.17449 29.26942 18542 ft 406 kts 180°
2026-04-26 07:42 -5.20295 29.26863 18769 ft 408 kts 180°
2026-04-26 07:42 -5.23137 29.26783 18994 ft 409 kts 180°
2026-04-26 07:43 -5.26015 29.26703 19219 ft 411 kts 180°
2026-04-26 07:43 -5.28925 29.26621 19443 ft 413 kts 180°
2026-04-26 07:43 -5.31820 29.26541 19665 ft 414 kts 180°
2026-04-26 07:43 -5.34723 29.26459 19887 ft 416 kts 180°
2026-04-26 07:44 -5.37634 29.26378 20109 ft 417 kts 180°
2026-04-26 07:44 -5.40577 29.26295 20334 ft 419 kts 180°
2026-04-26 07:44 -5.43498 29.26213 20556 ft 420 kts 180°
2026-04-26 07:44 -5.46485 29.26129 20782 ft 422 kts 180°
2026-04-26 07:45 -5.49417 29.26047 21003 ft 423 kts 180°
2026-04-26 07:45 -5.52396 29.25964 21230 ft 424 kts 181°
2026-04-26 07:45 -5.55367 29.25880 21456 ft 425 kts 181°
2026-04-26 07:45 -5.58357 29.25796 21682 ft 426 kts 181°
2026-04-26 07:46 -5.61320 29.25713 21906 ft 427 kts 181°
2026-04-26 07:46 -5.64309 29.25629 22130 ft 427 kts 181°
2026-04-26 07:46 -5.67303 29.25545 22354 ft 427 kts 181°
2026-04-26 07:46 -5.70400 29.25458 22585 ft 428 kts 181°
2026-04-26 07:47 -5.73442 29.25373 22811 ft 428 kts 181°
2026-04-26 07:47 -5.76446 29.25289 23034 ft 427 kts 181°
2026-04-26 07:47 -5.79401 29.25206 23252 ft 427 kts 181°
2026-04-26 07:47 -5.82420 29.25121 23481 ft 427 kts 181°
2026-04-26 07:48 -5.85385 29.25037 23717 ft 426 kts 181°
2026-04-26 07:48 -5.88373 29.24890 23955 ft 425 kts 184°
2026-04-26 07:48 -5.91345 29.24671 24196 ft 424 kts 184°
2026-04-26 07:48 -5.94278 29.24456 24434 ft 424 kts 184°
2026-04-26 07:49 -5.97252 29.24240 24676 ft 423 kts 184°
2026-04-26 07:49 -6.00183 29.24027 24915 ft 421 kts 184°
2026-04-26 07:49 -6.03118 29.23815 25155 ft 420 kts 184°
2026-04-26 07:50 -6.08978 29.23392 25638 ft 417 kts 183°
2026-04-26 07:50 -6.11895 29.23182 25878 ft 416 kts 183°
2026-04-26 07:50 -6.14795 29.22972 26116 ft 414 kts 183°
2026-04-26 07:50 -6.17677 29.22764 26353 ft 412 kts 183°
2026-04-26 07:51 -6.20566 29.22555 26592 ft 410 kts 183°
2026-04-26 07:51 -6.23416 29.22350 26828 ft 408 kts 183°
2026-04-26 07:51 -6.26235 29.22146 27062 ft 406 kts 183°
2026-04-26 07:51 -6.29092 29.21939 27301 ft 404 kts 183°
2026-04-26 07:52 -6.31903 29.21736 27538 ft 402 kts 183°
2026-04-26 07:52 -6.34688 29.21535 27774 ft 399 kts 183°
2026-04-26 07:52 -6.37479 29.21334 28019 ft 396 kts 183°
2026-04-26 07:52 -6.40228 29.21135 28270 ft 394 kts 183°
2026-04-26 07:53 -6.42948 29.20939 28520 ft 391 kts 182°
2026-04-26 07:53 -6.45670 29.20742 28772 ft 388 kts 182°
2026-04-26 07:53 -6.48393 29.20545 29027 ft 385 kts 182°
2026-04-26 07:53 -6.51079 29.20351 29284 ft 382 kts 182°
2026-04-26 07:54 -6.53723 29.20160 29541 ft 378 kts 182°
2026-04-26 07:54 -6.56339 29.19971 29798 ft 375 kts 182°
2026-04-26 07:54 -6.58954 29.19782 30057 ft 371 kts 182°
2026-04-26 07:54 -6.61533 29.19596 30317 ft 367 kts 182°
2026-04-26 07:55 -6.64060 29.19414 30574 ft 363 kts 182°
2026-04-26 07:55 -6.66597 29.19232 30835 ft 359 kts 182°
2026-04-26 07:55 -6.69081 29.19054 31094 ft 354 kts 182°
2026-04-26 07:55 -6.71546 29.18877 31353 ft 350 kts 182°
2026-04-26 07:56 -6.73991 29.18702 31612 ft 345 kts 182°
2026-04-26 07:56 -6.76376 29.18531 31869 ft 340 kts 182°
2026-04-26 07:56 -6.78751 29.18361 32128 ft 334 kts 182°
2026-04-26 07:56 -6.81088 29.18193 32384 ft 328 kts 182°
2026-04-26 07:57 -6.83379 29.18029 32639 ft 322 kts 182°
2026-04-26 07:57 -6.85612 29.17868 32892 ft 316 kts 182°
2026-04-26 07:57 -6.87798 29.17711 33142 ft 309 kts 182°
2026-04-26 07:57 -6.89959 29.17556 33390 ft 301 kts 182°
2026-04-26 07:58 -6.92032 29.17407 33627 ft 294 kts 182°
2026-04-26 07:58 -6.94057 29.17261 33865 ft 285 kts 182°
2026-04-26 07:58 -6.96024 29.17120 34099 ft 275 kts 182°
2026-04-26 07:58 -6.97956 29.16998 33868 ft 289 kts 180°
2026-04-26 07:59 -7.00057 29.16923 33498 ft 307 kts 181°
2026-04-26 07:59 -7.02252 29.16795 33242 ft 320 kts 182°
2026-04-26 07:59 -7.06741 29.16432 33323 ft 318 kts 183°
2026-04-26 08:00 -7.11135 29.16071 33313 ft 315 kts 182°
2026-04-26 08:00 -7.13159 29.15915 33262 ft 314 kts 182°
2026-04-26 08:01 -7.16386 29.15673 33335 ft 315 kts 182°
2026-04-26 08:01 -7.19622 29.15436 32977 ft 334 kts 182°
2026-04-26 08:02 -7.20793 29.15350 33087 ft 329 kts 182°
2026-04-26 08:02 -7.23036 29.15185 33524 ft 315 kts 182°
2026-04-26 08:02 -7.25321 29.15021 33223 ft 331 kts 182°
2026-04-26 08:02 -7.27624 29.14854 33367 ft 325 kts 182°
2026-04-26 08:03 -7.32262 29.14520 33315 ft 332 kts 182°
2026-04-26 08:03 -7.36977 29.14181 33305 ft 337 kts 182°
2026-04-26 08:04 -7.41733 29.13839 33303 ft 341 kts 182°
2026-04-26 08:04 -7.46596 29.13489 33303 ft 347 kts 182°
2026-04-26 08:05 -7.51494 29.13137 33293 ft 353 kts 182°
2026-04-26 08:05 -7.56516 29.12775 33285 ft 359 kts 182°
2026-04-26 08:06 -7.61615 29.12408 33278 ft 365 kts 182°
2026-04-26 08:06 -7.66792 29.12036 33234 ft 372 kts 182°
2026-04-26 08:07 -7.72092 29.11654 33181 ft 380 kts 182°
2026-04-26 08:07 -7.77452 29.11267 33169 ft 386 kts 183°
2026-04-26 08:08 -7.82883 29.10870 33160 ft 392 kts 183°
2026-04-26 08:08 -7.88426 29.10465 33149 ft 398 kts 183°
2026-04-26 08:09 -7.94032 29.10055 33138 ft 404 kts 183°
2026-04-26 08:09 -7.99759 29.09636 33128 ft 410 kts 183°
2026-04-26 08:10 -8.05564 29.09212 33129 ft 415 kts 183°
2026-04-26 08:10 -8.11369 29.08787 33140 ft 419 kts 183°
2026-04-26 08:11 -8.17261 29.08356 33154 ft 422 kts 183°
2026-04-26 08:11 -8.23181 29.07922 33164 ft 425 kts 183°
2026-04-26 08:12 -8.29136 29.07486 33166 ft 427 kts 183°
2026-04-26 08:12 -8.35113 29.07048 33158 ft 428 kts 183°
2026-04-26 08:13 -8.41155 29.06606 33146 ft 430 kts 183°
2026-04-26 08:13 -8.47207 29.06162 33121 ft 430 kts 183°
2026-04-26 08:14 -8.53197 29.05723 33097 ft 431 kts 183°
2026-04-26 08:14 -8.59108 29.05290 33092 ft 431 kts 183°
2026-04-26 08:15 -8.65096 29.04851 33092 ft 431 kts 183°
2026-04-26 08:15 -8.71029 29.04415 33092 ft 431 kts 183°
2026-04-26 08:16 -8.76995 29.03977 33092 ft 431 kts 183°
2026-04-26 08:16 -8.82942 29.03540 33092 ft 431 kts 183°
2026-04-26 08:17 -8.88893 29.03103 33092 ft 431 kts 183°
2026-04-26 08:17 -8.94820 29.02668 33092 ft 431 kts 183°
2026-04-26 08:18 -9.00770 29.02230 33093 ft 430 kts 183°
2026-04-26 08:18 -9.06730 29.01792 33099 ft 430 kts 183°
2026-04-26 08:19 -9.12659 29.01358 33111 ft 430 kts 183°
2026-04-26 08:19 -9.18586 29.00930 33119 ft 430 kts 183°
2026-04-26 08:20 -9.24540 29.00500 33128 ft 430 kts 183°
2026-04-26 08:20 -9.30442 29.00073 33136 ft 430 kts 183°
2026-04-26 08:21 -9.36424 28.99640 33144 ft 430 kts 183°
2026-04-26 08:21 -9.42332 28.99212 33151 ft 430 kts 183°
2026-04-26 08:22 -9.48287 28.98781 33158 ft 430 kts 183°
2026-04-26 08:22 -9.54236 28.98350 33166 ft 430 kts 183°
2026-04-26 08:23 -9.60196 28.97918 33175 ft 430 kts 183°
2026-04-26 08:23 -9.66105 28.97490 33183 ft 430 kts 183°
2026-04-26 08:24 -9.72022 28.97061 33192 ft 430 kts 183°
2026-04-26 08:24 -9.77962 28.96630 33198 ft 430 kts 183°
2026-04-26 08:25 -9.83925 28.96197 33197 ft 430 kts 183°
2026-04-26 08:25 -9.89849 28.95767 33195 ft 430 kts 183°
2026-04-26 08:26 -9.95781 28.95336 33194 ft 430 kts 183°
2026-04-26 08:26 -10.01720 28.94905 33193 ft 430 kts 183°
2026-04-26 08:27 -10.07672 28.94468 33188 ft 429 kts 183°
2026-04-26 08:27 -10.13596 28.94005 33189 ft 429 kts 183°
2026-04-26 08:28 -10.19528 28.93543 33188 ft 429 kts 183°
2026-04-26 08:28 -10.25494 28.93079 33188 ft 429 kts 183°
2026-04-26 08:29 -10.31404 28.92618 33183 ft 429 kts 183°
2026-04-26 08:29 -10.37341 28.92155 33181 ft 429 kts 183°
2026-04-26 08:30 -10.43293 28.91691 33179 ft 429 kts 183°
2026-04-26 08:30 -10.49196 28.91230 33177 ft 429 kts 183°
2026-04-26 08:31 -10.55156 28.90765 33178 ft 429 kts 183°
2026-04-26 08:31 -10.61065 28.90304 33187 ft 429 kts 183°
2026-04-26 08:32 -10.67007 28.89839 33197 ft 428 kts 183°
2026-04-26 08:32 -10.72906 28.89378 33203 ft 428 kts 183°
2026-04-26 08:33 -10.78833 28.88915 33205 ft 428 kts 183°
2026-04-26 08:33 -10.84791 28.88449 33206 ft 428 kts 183°
2026-04-26 08:34 -10.90678 28.87988 33207 ft 428 kts 183°
2026-04-26 08:34 -10.96568 28.87527 33207 ft 428 kts 183°
2026-04-26 08:35 -11.02510 28.87062 33208 ft 428 kts 183°
2026-04-26 08:35 -11.08440 28.86598 33208 ft 428 kts 183°
2026-04-26 08:36 -11.14334 28.86090 33211 ft 428 kts 185°
2026-04-26 08:36 -11.20234 28.85474 33209 ft 428 kts 184°
2026-04-26 08:37 -11.26109 28.84862 33205 ft 428 kts 184°
2026-04-26 08:37 -11.32048 28.84244 33207 ft 428 kts 184°
2026-04-26 08:38 -11.37929 28.83632 33212 ft 428 kts 184°
2026-04-26 08:38 -11.43849 28.83015 33218 ft 428 kts 184°
2026-04-26 08:39 -11.49744 28.82401 33223 ft 427 kts 184°
2026-04-26 08:39 -11.55610 28.81790 33223 ft 427 kts 184°
2026-04-26 08:40 -11.61487 28.81177 33219 ft 427 kts 184°
2026-04-26 08:40 -11.67368 28.80563 33220 ft 427 kts 184°
2026-04-26 08:41 -11.73243 28.79950 33222 ft 427 kts 184°
2026-04-26 08:41 -11.79116 28.79336 33219 ft 427 kts 184°
2026-04-26 08:42 -11.85005 28.78721 33211 ft 426 kts 184°
2026-04-26 08:42 -11.90904 28.78105 33202 ft 426 kts 184°
2026-04-26 08:43 -11.96757 28.77493 33193 ft 426 kts 184°
2026-04-26 08:43 -12.02620 28.76880 33186 ft 426 kts 184°
2026-04-26 08:44 -12.08486 28.76265 33189 ft 425 kts 184°
2026-04-26 08:44 -12.14340 28.75652 33197 ft 424 kts 184°
2026-04-26 08:45 -12.20154 28.75043 33202 ft 424 kts 184°
2026-04-26 08:45 -12.25972 28.74434 33211 ft 424 kts 184°
2026-04-26 08:46 -12.31788 28.73824 33214 ft 423 kts 184°
2026-04-26 08:46 -12.37636 28.73211 33216 ft 423 kts 184°
2026-04-26 08:47 -12.43485 28.72597 33219 ft 423 kts 184°
2026-04-26 08:47 -12.49273 28.71989 33222 ft 423 kts 184°
2026-04-26 08:48 -12.55120 28.71375 33225 ft 422 kts 184°
2026-04-26 08:48 -12.60887 28.70770 33227 ft 422 kts 184°
2026-04-26 08:49 -12.66712 28.70157 33229 ft 422 kts 184°
2026-04-26 08:49 -12.72521 28.69546 33231 ft 422 kts 184°
2026-04-26 08:50 -12.78333 28.68935 33233 ft 422 kts 184°
2026-04-26 08:50 -12.84116 28.68326 33234 ft 422 kts 184°
2026-04-26 08:51 -12.92800 28.67411 33236 ft 422 kts 184°
2026-04-26 08:52 -12.98615 28.66799 33236 ft 422 kts 184°
2026-04-26 08:52 -13.04402 28.66193 33238 ft 421 kts 184°
2026-04-26 08:53 -13.10202 28.65586 33239 ft 421 kts 184°
2026-04-26 08:53 -13.15997 28.64981 33247 ft 421 kts 184°
2026-04-26 08:54 -13.21756 28.64379 33249 ft 421 kts 184°
2026-04-26 08:54 -13.27578 28.63769 33249 ft 421 kts 184°
2026-04-26 08:55 -13.33361 28.63164 33250 ft 421 kts 184°
2026-04-26 08:55 -13.39152 28.62558 33251 ft 421 kts 184°
2026-04-26 08:56 -13.44910 28.61954 33255 ft 421 kts 184°
2026-04-26 08:56 -13.50695 28.61348 33260 ft 420 kts 184°
2026-04-26 08:57 -13.56487 28.60740 33261 ft 420 kts 184°
2026-04-26 08:57 -13.62280 28.60132 33263 ft 420 kts 184°
2026-04-26 08:58 -13.68029 28.59529 33264 ft 420 kts 184°
2026-04-26 08:58 -13.73814 28.58921 33267 ft 420 kts 184°
2026-04-26 08:59 -13.79577 28.58315 33269 ft 419 kts 184°
2026-04-26 08:59 -13.85359 28.57707 33268 ft 419 kts 184°
2026-04-26 09:00 -13.91128 28.57100 33273 ft 419 kts 184°
2026-04-26 09:00 -13.96907 28.56492 33277 ft 419 kts 184°
2026-04-26 09:01 -14.02671 28.55885 33277 ft 419 kts 184°
2026-04-26 09:01 -14.08437 28.55278 33276 ft 419 kts 184°
2026-04-26 09:02 -14.14195 28.54671 33283 ft 419 kts 184°
2026-04-26 09:02 -14.19964 28.54063 33282 ft 419 kts 184°
2026-04-26 09:03 -14.25728 28.53454 33280 ft 419 kts 184°
2026-04-26 09:03 -14.31429 28.52853 33282 ft 418 kts 184°
2026-04-26 09:04 -14.37184 28.52245 33284 ft 418 kts 184°
2026-04-26 09:04 -14.42976 28.51632 33287 ft 418 kts 184°
2026-04-26 09:05 -14.48690 28.51029 33290 ft 418 kts 184°
2026-04-26 09:05 -14.54489 28.50415 33292 ft 418 kts 184°
2026-04-26 09:06 -14.60327 28.49797 33293 ft 418 kts 184°
2026-04-26 09:06 -14.66137 28.49182 33298 ft 418 kts 184°
2026-04-26 09:07 -14.72015 28.48558 33306 ft 419 kts 184°
2026-04-26 09:07 -14.77847 28.47939 33295 ft 421 kts 184°
2026-04-26 09:08 -14.83731 28.47316 33285 ft 421 kts 184°
2026-04-26 09:08 -14.89588 28.46695 33290 ft 420 kts 184°
2026-04-26 09:09 -14.95433 28.46074 33299 ft 420 kts 184°
2026-04-26 09:09 -15.01262 28.45455 33307 ft 420 kts 184°
2026-04-26 09:10 -15.07091 28.44835 33312 ft 420 kts 184°
2026-04-26 09:10 -15.12945 28.44213 33323 ft 420 kts 184°
2026-04-26 09:11 -15.18813 28.43589 33323 ft 420 kts 184°
2026-04-26 09:11 -15.24677 28.42964 33324 ft 421 kts 184°
2026-04-26 09:12 -15.30537 28.42339 33332 ft 420 kts 184°
2026-04-26 09:12 -15.36280 28.41168 33363 ft 420 kts 191°
2026-04-26 09:13 -15.41069 28.39904 33353 ft 421 kts 192°